sat.trackr.live / text

‹ back to catalog

STARLINK-5346

NORAD 56518 · 2023-065R

PAYLOAD ACTIVE UNKNOWN

§ Identity

Operator
Country
US
Launch date
2023-05-14
Launch site
AFETR
Launch vehicle
Mass (kg)
RCS (m²)

Purposes: comms

External: N2YO · Heavens-Above · Gunter

§ Orbital elements

Epoch: 2026-05-25T00:30:23.280192Z

Period
94.26 min
Inclination
43.0051°
Eccentricity
0.0002851
Mean motion
15.27632571 rev/d
Perigee alt
480.9 km
Apogee alt
484.8 km
Semi-major
6,861.0 km
B*
-1.1543e-4
RAAN
141.4017°
Arg perigee
283.1369°
Mean anomaly
76.9164°
Rev number
16,827

§ Raw data

STARLINK-53461 56518U 23065R   26145.02110278 -.00003443  00000+0 -11543-3 0  99922 56518  43.0051 141.4017 0002851 283.1369  76.9164 15.27632571168272

JSON: /api/v1/satellites/56518 · /tle

For live sub-satellite position, see the globe view (requires WebGL).

§ Visibility from observer

Set your observer location to see the next 7 days of passes ≥ 10°. The values pass through the URL so the page stays shareable.

No JS? Fill the form by hand. The geolocation button needs JavaScript.